Wind_Speed
20 20 20 19 18 18 18 18 18 17 17 16 16 17 18 20 21 22 24 25 24 24 26 27 27 25 24 24 24 24 25 25 26 28 28 29 29 30 30 30 30 30 30 30 30 29 29 29 28 26 24 23 22 21 20 20 20 20 21 21 22 23 25 27 30 31 30 29 29 29 30 31 31 32
23 23 23 22 21 20 19 18 18 17 17 16 17 18 19 20 20 21 23 24 23 22 22 23 24 25 24 24 25 26 26 27 28 28 29 30 30 29 30 30 29 29 30 31 31 30 30 29 29 28 27 26 24 23 23 23 24 24 25 25 26 27 28 29 30 33 33 33 32 31 31 31 31 31
24 24 25 25 25 24 22 21 20 19 19 18 18 20 21 22 23 23 24 26 25 23 21 20 21 22 23 23 25 25 26 27 28 30 31 32 32 31 31 30 30 29 29 30 30 30 30 30 30 29 29 28 27 27 26 26 27 28 29 29 30 31 32 32 32 33 35 36 35 34 33 32 32 31
25 25 26 27 27 27 26 25 24 23 22 21 22 23 24 25 25 26 27 28 28 27 26 24 22 21 23 24 25 25 25 25 27 28 31 32 32 32 31 31 32 32 32 31 31 31 31 32 32 32 32 32 31 31 31 31 31 32 33 33 34 35 36 37 37 37 38 39 38 37 35 34 33 33
26 27 28 28 28 28 28 27 26 25 25 24 25 26 27 27 27 27 27 28 29 28 28 28 26 24 23 25 26 26 26 26 25 26 28 30 31 31 31 31 32 33 35 36 36 37 37 38 38 38 37 37 36 36 36 36 36 37 38 38 39 40 41 42 43 43 43 43 42 39 38 36 35 34
27 29 30 30 30 30 29 28 27 26 26 27 26 27 28 29 28 27 27 27 28 28 28 28 28 27 25 25 27 27 27 27 26 26 27 29 29 30 30 31 32 34 36 38 41 42 44 45 45 45 44 43 42 42 42 42 43 43 44 45 45 46 47 47 47 47 48 47 45 42 40 39 37 36
27 29 31 32 32 32 31 30 29 28 27 27 27 27 28 28 28 28 28 28 28 29 29 29 29 29 27 27 28 28 28 28 28 28 29 29 29 30 31 31 33 35 38 40 42 45 46 46 47 47 48 48 48 49 49 49 49 50 50 51 51 51 50 50 49 49 49 48 47 44 41 40 39 39
27 27 29 31 32 31 31 31 30 29 28 27 26 26 27 28 28 28 28 29 30 30 30 30 30 30 29 29 30 30 29 28 28 28 29 30 31 32 33 35 36 37 38 39 40 42 43 44 45 46 47 48 49 51 52 53 54 55 55 55 54 53 52 51 49 48 48 47 47 46 43 42 41 41
30 28 28 29 29 29 28 28 28 28 28 27 26 26 26 28 28 29 29 29 30 30 30 30 30 29 29 28 29 30 30 28 28 28 29 31 33 34 35 36 37 38 38 38 37 38 38 39 40 41 43 44 46 47 49 51 52 53 53 53 52 51 50 49 48 48 47 47 47 46 45 44 44 44
33 30 29 29 29 28 26 26 27 28 27 26 25 26 27 28 29 29 30 30 30 30 30 30 30 30 29 28 29 30 31 30 30 31 32 33 35 36 36 37 38 39 38 38 37 37 37 38 38 39 40 42 43 44 44 45 46 46 47 48 48 48 48 49 49 48 48 47 47 47 46 46 46 45
34 33 31 31 30 28 26 26 26 27 26 25 25 25 26 28 29 29 30 31 31 31 31 31 31 32 31 30 31 32 33 33 34 36 36 37 38 39 40 40 41 42 43 42 41 40 41 41 42 42 43 44 44 44 45 45 46 46 47 48 48 48 49 49 49 49 48 48 49 48 48 47 46 46
33 33 32 32 31 28 27 26 25 25 24 24 25 25 26 28 28 29 30 31 31 31 31 31 32 32 33 33 33 34 35 36 38 40 41 41 42 44 44 44 44 45 45 45 44 44 44 44 44 45 46 46 46 46 47 47 48 49 49 49 50 50 50 50 50 50 50 49 49 49 48 48 47 47
32 31 30 30 29 27 26 25 24 23 23 24 25 26 27 28 28 29 30 31 31 32 31 31 32 33 34 36 36 37 38 39 41 43 44 45 46 46 46 44 43 43 43 43 43 43 44 44 44 44 45 46 47 47 47 48 48 49 49 50 50 50 51 51 51 51 51 51 50 50 49 48 48 48
30 29 27 28 27 26 26 25 24 23 24 25 26 27 27 28 29 30 31 32 32 33 32 32 33 34 35 37 38 39 40 42 43 44 45 46 47 47 46 43 41 41 43 43 41 41 42 42 43 44 45 45 46 47 47 48 48 49 49 50 50 50 51 51 52 52 51 51 50 49 49 49 49 48
29 28 26 27 27 27 26 26 25 25 26 27 28 29 29 30 31 32 32 33 34 34 34 34 35 36 37 38 40 41 43 44 45 46 47 47 47 47 47 44 41 40 43 44 42 41 42 43 44 44 45 45 45 45 45 47 47 48 49 49 49 49 49 49 49 49 49 49 48 48 48 48 49 49
30 28 27 26 27 27 27 27 28 28 30 30 30 30 31 32 33 33 34 35 35 36 36 36 37 38 39 40 42 44 45 46 46 47 47 47 47 46 46 44 42 40 42 44 43 42 42 44 44 43 43 43 43 43 43 44 45 45 45 46 46 46 46 46 46 46 47 47 47 48 48 49 50 51
30 29 27 27 27 28 29 30 30 31 32 32 32 32 33 33 34 35 36 37 37 37 37 37 39 41 42 43 44 46 47 47 47 47 47 46 46 45 44 43 41 40 42 43 43 42 42 43 43 42 41 41 41 41 41 41 42 41 42 42 43 43 43 44 44 45 46 47 47 48 49 50 51 52
30 29 28 28 28 29 31 32 32 33 32 32 33 33 34 35 36 37 38 39 39 39 40 40 41 43 44 45 46 47 48 48 47 46 45 45 45 44 43 42 40 41 43 45 45 44 43 42 40 39 39 40 39 38 38 39 40 40 41 42 42 42 42 43 44 45 46 47 48 49 50 51 52 53
32 32 31 30 31 32 33 34 34 33 33 33 34 35 36 37 38 39 40 41 42 42 42 43 44 45 47 48 48 48 47 47 46 45 45 44 44 43 42 41 42 44 46 47 47 46 43 39 37 37 37 37 36 36 37 39 40 40 41 42 42 42 43 44 44 45 46 47 48 49 51 52 53 54
35 34 33 33 32 33 35 35 35 34 34 34 35 36 37 38 39 41 42 43 43 43 44 45 46 47 48 48 47 46 45 45 45 44 44 44 44 44 43 44 45 46 46 47 48 47 43 39 36 34 34 34 34 36 38 39 39 39 39 40 41 42 43 44 44 45 45 45 46 47 48 50 52 53
35 34 33 33 33 34 35 35 35 34 34 35 36 37 38 39 41 43 43 43 44 44 45 46 47 46 46 45 44 44 43 44 44 45 45 45 46 46 46 46 45 44 43 44 45 44 41 37 34 33 33 34 34 36 36 36 36 36 37 37 39 40 42 43 43 43 43 44 44 45 46 47 48 50
34 33 33 33 34 35 35 35 34 35 35 36 37 38 39 40 42 43 43 44 45 45 46 46 46 45 44 43 43 43 44 45 46 46 46 46 46 45 44 43 42 39 39 40 40 39 36 35 33 32 32 33 33 34 34 34 34 34 35 36 37 39 40 41 41 41 41 42 43 43 44 46 47 48
32 32 33 33 34 34 34 34 34 35 35 36 37 38 39 40 42 42 43 44 45 45 45 45 44 44 44 44 45 45 46 47 47 46 45 44 43 43 41 40 38 36 35 37 37 35 33 33 32 32 32 31 31 32 32 33 34 34 35 36 37 38 39 40 40 40 40 41 42 43 44 45 46 47
32 32 33 33 34 34 34 35 35 35 36 37 38 39 39 40 41 42 43 44 44 44 44 44 44 45 46 47 47 47 46 46 45 44 43 42 42 41 39 37 36 34 33 34 34 32 31 31 30 31 32 30 29 30 31 32 33 35 36 37 38 38 39 39 39 40 40 41 42 42 43 44 45 46
32 33 33 33 33 34 34 35 36 36 37 37 38 39 40 41 42 43 43 43 43 43 43 44 46 47 48 48 47 45 44 43 43 43 43 43 42 40 38 36 34 33 33 34 33 31 30 29 29 29 30 30 29 30 30 31 32 34 36 37 38 38 39 39 39 39 40 41 42 43 44 45 46 47
33 34 34 34 34 34 35 36 37 37 37 38 39 40 40 41 42 42 42 42 42 43 44 46 47 47 47 46 44 43 42 42 43 44 44 44 42 40 39 36 34 33 32 32 32 30 29 28 28 28 29 29 30 31 31 31 31 33 35 36 36 37 38 38 38 39 40 41 41 42 44 45 46 48
34 35 35 34 34 35 36 37 37 38 38 39 40 40 41 41 40 40 40 41 43 44 45 46 46 45 43 42 41 41 42 43 44 45 45 43 42 41 39 37 35 33 31 30 29 28 27 26 27 28 29 30 31 31 31 31 31 32 34 35 35 36 36 37 38 39 39 40 41 42 44 45 47 49
35 35 35 35 35 36 37 38 38 38 38 39 40 40 40 39 38 39 41 42 43 44 44 44 43 41 41 41 41 41 42 43 43 43 42 40 39 37 36 34 33 32 30 28 27 27 26 26 27 29 30 31 32 31 31 31 30 31 32 33 34 34 35 37 38 39 39 39 40 42 44 45 47 49
35 35 35 35 36 37 38 38 38 38 39 40 40 39 38 37 38 39 41 42 42 42 42 41 40 40 40 40 40 41 41 41 41 39 38 36 34 32 31 31 30 29 28 27 26 26 27 27 28 30 31 32 32 32 32 32 31 31 32 32 32 32 34 36 38 38 38 39 41 42 43 45 46 48
35 35 35 36 37 37 37 37 37 38 39 39 39 38 37 37 38 39 40 40 40 40 40 40 39 38 38 38 39 39 39 39 39 37 35 33 30 28 28 28 28 27 26 26 26 27 28 28 30 31 31 32 33 33 34 33 32 31 32 33 32 31 32 35 36 37 38 39 40 41 42 44 46 48
34 35 36 36 36 36 37 37 37 37 38 38 38 37 37 37 38 38 37 37 38 38 38 37 37 37 37 37 38 38 38 38 37 35 32 30 28 28 27 27 27 26 26 26 27 27 28 29 30 32 32 32 32 33 33 33 32 32 32 32 32 32 33 34 35 36 38 38 38 38 39 41 44 47
34 35 35 35 35 36 36 36 36 36 37 37 37 36 36 37 36 36 35 35 36 36 35 35 35 36 36 37 37 37 37 36 35 33 30 28 27 28 28 27 26 26 27 28 29 30 30 31 32 32 33 33 33 32 32 32 32 33 32 32 32 31 33 35 35 36 38 38 36 35 36 39 43 45
34 34 34 34 35 35 35 35 35 36 37 37 36 35 36 36 34 33 33 33 33 33 33 33 34 34 35 36 36 36 35 34 33 31 29 27 27 28 28 27 26 26 27 28 30 32 32 33 33 33 33 33 33 34 33 32 32 33 33 32 31 31 32 34 36 37 38 38 36 34 35 38 42 44
33 33 33 34 34 34 34 35 36 36 36 36 35 36 36 34 31 29 30 31 31 31 30 31 31 32 33 33 34 33 33 32 31 30 28 27 27 27 26 26 26 27 27 28 30 31 32 33 33 34 34 34 34 35 36 35 33 32 32 32 31 31 31 32 34 36 38 38 38 37 36 37 40 42
32 32 32 32 32 32 34 36 36 36 35 35 36 36 34 31 28 27 29 29 29 28 27 28 29 30 31 32 32 32 32 31 30 29 28 28 27 26 26 26 27 28 28 29 29 30 31 32 32 33 33 33 34 35 38 39 36 33 31 31 32 32 31 32 33 35 36 38 38 39 39 37 37 37
31 31 31 31 31 33 35 36 36 35 35 35 36 35 31 27 25 26 27 27 26 25 25 27 28 29 30 31 31 32 32 32 31 30 30 29 28 27 27 27 27 28 29 29 30 30 31 32 32 33 33 33 32 32 35 38 39 36 32 31 32 32 31 31 32 34 35 36 37 39 40 37 32 30
30 29 29 29 31 34 36 36 35 34 35 36 35 31 27 24 24 25 25 24 23 23 25 26 27 28 29 30 31 32 33 32 31 30 30 30 29 28 27 28 28 29 30 30 31 31 32 32 33 33 33 32 31 30 31 34 37 37 34 31 30 31 31 32 32 33 34 35 36 38 39 37 29 24
28 27 28 30 33 35 35 34 34 35 35 35 32 27 23 23 23 23 22 22 23 24 25 27 28 29 29 30 31 32 32 32 31 30 29 29 27 27 27 28 28 29 30 31 32 32 32 33 33 33 33 32 31 31 30 31 33 36 36 33 31 30 30 30 30 30 31 32 34 36 39 37 28 21
26 26 28 31 34 34 34 34 34 35 35 33 29 25 22 22 21 20 21 22 24 25 26 27 28 28 29 30 31 31 32 32 31 31 30 29 28 27 27 27 28 29 30 31 32 33 33 33 33 34 34 33 33 32 31 31 31 33 34 34 32 30 29 29 29 29 29 31 32 33 35 35 29 21
25 27 30 32 33 33 33 33 34 35 34 31 27 24 21 20 19 19 21 23 24 25 26 27 28 28 29 29 30 31 32 32 33 33 32 31 29 28 28 28 29 29 30 31 32 33 34 34 34 35 35 34 34 33 32 31 31 31 32 32 32 32 31 30 29 29 29 30 32 31 30 30 29 23
26 28 29 31 32 33 33 33 34 34 32 28 25 22 20 18 18 20 21 23 24 26 26 27 27 28 29 29 30 31 32 33 34 34 34 32 30 29 29 29 29 30 30 31 32 33 33 34 34 34 34 34 33 32 31 30 29 29 29 30 31 32 33 34 33 33 33 32 32 31 27 24 25 24
26 28 29 31 32 33 33 33 33 32 29 26 23 21 19 18 18 20 22 23 24 26 27 27 28 28 29 29 30 30 32 33 34 35 35 33 31 30 29 29 29 29 29 30 31 31 32 32 32 32 32 32 31 30 29 28 27 26 26 27 28 30 33 34 35 36 36 35 34 30 23 19 21 22
27 28 30 32 33 33 33 32 31 30 27 24 21 19 18 18 19 21 22 24 25 26 27 27 28 28 29 29 30 30 31 33 34 35 35 33 31 29 28 28 28 27 28 28 29 30 30 31 31 31 30 29 28 27 26 25 25 25 24 24 25 27 29 32 33 35 37 37 37 33 24 17 18 20
27 29 30 32 32 32 32 31 30 27 24 22 20 18 17 18 19 21 23 24 26 26 27 28 28 29 29 29 30 30 31 32 33 34 34 33 31 28 27 26 26 26 27 27 28 28 29 30 30 29 28 26 25 24 23 22 23 23 23 23 24 24 26 27 29 31 34 36 36 34 28 21 18 18
27 29 30 31 32 31 30 29 27 25 22 20 18 17 16 18 20 22 23 25 26 27 27 28 29 29 29 29 30 30 31 31 32 33 33 33 31 28 26 25 26 26 26 27 27 27 28 28 28 27 25 24 23 22 21 20 21 21 22 22 23 24 25 25 25 27 30 33 35 34 28 21 18 18
Wind_Direction
342 338 334 334 336 338 339 338 334 330 327 326 324 321 318 316 314 311 310 308 307 304 299 294 288 282 279 279 278 278 278 278 279 280 280 280 280 280 281 282 284 284 282 279 276 273 270 268 265 262 260 259 259 259 260 262 264 266 272 278 282 284 284 285 287 287 285 282 277 270 266 264 263 262
338 334 331 329 329 330 331 333 332 329 327 327 327 326 325 325 323 321 318 315 314 310 302 294 288 282 279 278 276 276 277 278 279 279 278 276 276 277 280 282 284 284 282 280 278 275 272 269 267 265 263 262 262 262 263 264 265 267 271 276 281 284 284 284 284 285 285 282 278 273 267 263 260 261
333 332 329 326 325 324 325 328 329 329 329 329 329 329 329 331 332 331 328 324 323 320 311 300 290 283 278 275 274 274 276 278 280 281 280 277 274 273 275 279 282 283 282 279 277 274 272 270 268 267 266 265 265 265 265 266 268 269 271 274 279 284 286 286 285 284 284 282 278 274 270 265 260 258
326 327 327 326 324 322 323 324 326 327 329 330 330 329 330 332 334 334 332 330 328 325 319 311 302 291 283 279 277 278 279 280 282 284 285 284 282 279 278 279 280 281 280 278 276 273 271 270 268 267 267 267 267 267 268 269 270 271 272 274 277 281 285 287 287 285 284 283 280 274 270 267 263 259
321 320 321 322 322 322 322 321 323 324 326 327 327 327 327 328 330 332 332 331 328 325 321 318 315 308 297 290 288 287 285 283 282 283 286 287 286 284 283 283 282 281 279 277 275 273 272 272 271 270 269 269 270 270 271 272 273 273 273 274 276 278 281 285 286 286 284 282 280 275 270 267 264 261
321 319 317 316 317 318 319 319 320 322 321 321 322 323 323 323 324 326 328 328 327 324 322 321 320 318 310 301 297 295 293 290 286 284 285 286 286 284 283 282 280 279 277 276 274 271 269 268 268 268 269 269 270 272 273 275 276 276 275 275 276 278 280 283 284 284 282 280 278 275 270 267 265 262
323 319 316 314 313 314 315 316 317 317 316 315 315 317 319 319 320 322 323 325 325 324 323 323 323 321 317 309 304 302 299 296 293 290 290 290 289 288 286 284 282 281 280 279 278 276 273 271 269 267 267 268 269 270 272 273 275 276 277 277 278 279 281 282 282 280 277 276 276 274 271 267 266 264
323 320 316 314 313 313 312 311 311 312 311 310 310 313 315 317 319 320 322 323 324 324 324 324 323 323 320 316 312 309 305 301 299 297 296 296 296 294 292 290 288 287 286 285 282 280 279 278 276 274 272 271 271 271 271 271 271 273 274 276 278 279 279 279 278 276 274 273 273 273 271 269 267 266
323 320 317 314 312 312 311 309 308 308 307 306 308 311 314 316 318 319 320 322 322 323 322 322 322 321 319 317 315 311 309 307 305 303 301 300 299 296 294 292 290 288 287 286 285 283 281 280 280 280 279 278 277 275 274 273 272 272 273 274 275 276 276 276 276 275 274 272 271 270 270 268 267 266
324 321 318 314 311 310 311 309 307 305 305 305 307 310 314 316 317 317 319 321 321 321 321 320 319 317 316 316 313 310 308 308 307 304 302 301 300 297 295 293 292 290 288 287 286 285 284 283 283 283 283 283 282 280 278 276 275 275 275 275 276 277 277 277 276 275 274 272 270 269 268 266 266 266
325 322 318 314 312 312 313 311 308 306 306 306 307 310 314 315 315 315 317 319 320 320 320 319 317 315 314 312 310 307 306 306 305 302 301 300 298 296 294 293 292 291 289 288 286 284 284 284 285 285 285 284 283 283 281 279 278 278 278 279 280 280 279 278 276 275 272 270 269 268 266 265 264 264
322 320 316 314 313 314 315 313 311 309 308 307 307 310 314 314 313 314 316 318 318 318 318 315 313 311 310 308 306 305 305 304 303 302 301 299 297 295 294 293 292 291 290 289 287 285 285 284 284 284 283 283 282 281 281 281 281 281 281 282 281 280 279 278 276 274 272 270 269 267 266 265 264 263
320 319 315 314 314 315 315 314 313 311 308 307 308 311 314 314 313 314 315 316 315 314 313 311 308 306 305 304 303 303 303 302 300 299 298 297 296 295 294 294 293 293 292 290 289 288 287 286 285 283 282 281 280 280 280 280 280 280 280 280 279 279 278 277 276 274 272 271 269 268 267 265 264 264
316 317 317 316 315 315 315 315 315 313 310 310 312 314 314 313 313 312 312 311 311 311 310 307 304 302 301 300 301 300 299 298 297 296 295 294 294 293 294 295 297 296 294 293 292 290 288 286 285 284 282 281 280 280 280 280 279 279 278 277 277 276 275 275 274 273 272 270 269 268 267 266 265 264
313 315 318 317 315 315 315 316 317 316 316 317 317 316 313 311 310 310 310 309 309 309 308 305 302 300 299 298 298 297 295 294 294 294 293 293 293 294 295 297 299 297 296 295 293 291 288 285 285 284 283 283 282 281 280 279 278 278 277 276 275 274 273 272 271 271 270 269 268 267 265 264 263 262
310 311 313 314 313 314 315 317 319 320 321 320 317 314 311 309 308 307 307 307 306 306 305 302 299 298 297 296 296 294 294 293 294 294 294 294 295 295 296 298 298 298 296 294 293 291 288 286 287 287 286 285 284 281 279 277 276 275 274 274 273 272 271 270 269 268 268 267 266 265 264 263 262 262
306 307 308 310 312 314 316 319 321 322 322 319 315 311 308 306 305 305 305 304 303 302 301 299 297 296 296 296 295 295 294 295 295 296 296 296 297 298 298 299 300 298 294 292 292 292 289 287 289 289 286 283 282 279 277 275 275 274 274 273 272 271 270 268 267 265 264 264 264 263 263 262 261 260
306 307 308 310 313 315 318 320 322 322 321 317 313 309 305 303 302 303 303 302 302 301 299 299 298 297 297 297 297 296 296 296 296 296 297 299 299 299 300 301 300 297 294 293 294 294 291 288 288 286 282 280 281 279 277 276 275 275 275 275 274 273 271 268 266 264 263 262 262 261 260 258 257 256
311 312 311 313 315 317 319 321 322 322 319 315 311 307 304 302 301 302 302 302 302 301 301 300 299 298 298 298 297 297 296 297 297 297 298 300 299 299 300 300 298 295 294 294 295 295 292 288 285 283 280 280 281 280 278 276 275 276 276 276 276 276 274 272 270 268 266 264 263 261 259 257 256 254
314 313 313 314 315 317 319 321 322 320 316 312 308 305 303 302 301 302 302 302 302 302 301 300 299 298 298 297 297 297 298 298 298 298 299 299 299 298 298 298 296 295 294 294 293 293 291 288 284 282 280 280 280 278 277 277 277 277 278 278 278 277 276 275 274 272 270 269 267 265 263 261 258 256
313 312 312 314 316 317 319 321 320 316 312 309 306 304 303 303 302 302 302 302 301 300 299 298 298 298 298 298 299 300 300 299 299 299 299 299 298 298 297 297 296 295 293 291 291 290 289 287 284 281 280 280 280 277 277 278 280 280 282 283 282 281 279 277 276 275 274 272 270 268 266 263 261 258
311 310 312 315 316 318 319 318 315 312 309 306 305 304 304 303 302 301 301 300 299 299 299 299 300 301 301 302 302 302 301 300 300 299 299 298 298 298 297 296 295 292 288 286 287 287 285 283 282 280 280 280 278 276 277 279 282 284 286 287 286 284 282 280 279 278 276 274 272 270 267 265 263 260
309 310 313 315 316 317 316 313 310 308 307 306 305 304 303 302 301 300 299 299 299 301 302 302 304 304 304 304 304 303 301 300 299 299 299 299 298 298 297 295 293 289 284 282 283 283 283 282 282 281 282 280 277 277 280 283 284 286 287 287 285 284 282 281 280 279 278 276 274 272 270 268 266 264
309 311 313 315 315 314 312 309 308 307 307 305 304 303 302 301 300 299 299 300 302 303 304 305 305 305 304 304 303 302 301 300 299 300 300 299 299 298 296 294 292 289 284 282 283 284 284 283 281 281 282 279 276 280 284 285 285 286 286 285 284 283 282 282 281 280 278 276 275 273 272 270 268 266
310 311 313 313 312 310 308 308 307 307 306 305 303 302 301 301 301 301 302 303 304 304 304 303 303 303 304 304 303 302 301 300 300 300 300 300 299 298 297 295 293 291 287 284 285 286 285 283 280 280 282 282 280 282 285 284 283 284 284 284 283 283 283 282 281 279 277 275 274 274 273 272 270 269
310 311 312 311 310 308 307 306 306 305 305 304 303 302 302 303 304 305 305 305 304 303 303 303 303 305 305 305 304 302 301 300 300 300 300 300 299 298 297 295 293 290 286 284 285 285 284 282 281 280 282 284 285 285 285 284 283 284 284 283 283 283 283 282 280 278 277 276 276 275 274 273 271 270
310 310 310 310 308 306 305 305 305 305 305 305 305 305 306 306 306 306 304 303 303 304 304 305 306 307 307 306 305 303 301 300 300 300 300 299 298 297 296 294 292 289 285 282 282 283 282 281 282 283 284 285 286 287 288 287 287 286 285 285 285 285 284 282 281 279 279 278 277 275 274 273 272 270
309 309 308 308 306 306 305 305 306 306 306 306 307 307 307 308 306 304 302 303 306 306 306 306 308 309 308 307 306 305 303 302 301 301 300 299 298 296 295 293 290 288 286 284 283 283 284 284 286 287 288 288 290 291 291 291 289 287 286 285 286 286 284 283 281 281 280 279 276 275 274 273 272 271
307 306 306 306 306 306 306 306 307 307 308 308 308 308 308 307 304 303 305 307 309 308 307 309 311 310 309 309 308 307 307 306 305 304 302 300 298 296 293 291 289 288 287 286 285 286 287 288 289 291 292 293 294 295 294 293 290 288 287 286 285 285 284 282 282 281 280 278 277 277 276 276 276 275
304 304 304 306 307 307 306 306 307 308 309 308 308 308 307 305 304 306 309 310 309 309 310 312 312 312 312 312 312 312 311 311 310 308 306 303 301 298 294 291 290 289 288 288 288 289 290 292 293 294 294 295 296 295 295 294 292 291 290 289 288 286 284 283 283 283 281 280 280 280 281 281 281 279
302 303 305 307 307 306 306 306 308 310 310 310 309 309 306 305 307 310 312 311 310 311 313 314 315 315 316 316 316 316 316 315 314 312 310 307 305 302 299 296 295 294 294 293 293 293 294 295 296 296 295 295 295 295 295 294 294 292 291 290 290 289 288 286 287 286 285 283 283 283 284 284 284 282
301 303 305 306 306 305 305 307 310 312 312 311 310 309 307 308 312 313 312 311 311 313 315 317 317 318 319 320 321 321 320 319 317 315 313 311 308 304 301 299 299 300 301 301 300 299 299 298 298 297 297 296 296 295 294 294 294 293 292 292 292 292 292 292 291 290 288 288 288 288 288 289 289 286
301 304 306 306 306 306 307 310 314 315 314 312 311 309 310 312 314 313 311 311 312 315 317 319 319 320 322 323 324 324 323 321 319 317 315 312 308 304 302 300 300 301 302 303 302 302 302 301 300 300 299 299 298 297 296 295 295 295 295 295 295 294 294 295 295 294 293 293 294 294 294 295 293 289
303 305 306 306 306 308 310 314 317 316 314 313 311 311 312 314 314 312 310 311 314 316 318 319 321 324 326 326 326 326 325 323 320 318 315 311 306 303 302 302 303 303 303 302 302 301 301 301 300 300 300 300 300 299 298 297 296 296 297 298 297 296 296 297 297 297 297 298 299 299 300 299 296 291
304 305 306 307 308 311 314 317 318 316 315 313 312 313 315 315 313 311 310 312 314 317 319 322 326 327 328 328 328 329 328 327 324 321 317 313 308 306 306 306 307 306 305 303 302 300 299 298 298 298 299 299 301 301 300 299 299 300 301 301 300 299 299 298 299 299 300 300 302 303 303 301 296 290
304 306 307 309 311 314 317 318 318 316 315 314 314 315 315 314 311 309 310 311 315 319 322 325 326 327 328 329 332 333 333 332 329 324 320 316 313 311 311 310 309 308 306 304 303 301 300 298 297 297 297 297 298 298 298 299 300 301 302 301 299 299 299 300 302 302 301 301 302 304 305 302 296 287
305 307 309 311 314 316 318 318 317 316 315 314 314 315 313 310 308 308 309 312 316 320 323 324 324 325 328 331 334 336 336 335 331 326 321 317 315 313 313 311 310 309 308 306 304 302 301 300 299 298 297 297 296 295 294 296 299 300 301 301 300 300 301 301 301 301 301 302 305 308 307 303 295 283
305 309 312 314 315 317 317 318 317 316 314 314 314 312 307 305 306 308 309 313 317 320 322 323 324 326 329 333 335 337 337 336 332 327 323 320 319 316 314 313 311 310 308 307 305 304 302 302 301 300 299 298 297 296 295 295 297 299 301 302 301 300 299 299 299 300 302 305 308 311 310 304 294 278
307 311 314 315 316 316 317 318 317 314 313 312 310 306 302 302 304 306 309 314 318 319 321 323 325 327 330 333 335 337 337 336 334 331 328 325 322 319 317 315 313 311 310 308 306 305 304 303 302 301 300 299 299 298 297 297 297 298 300 302 302 300 300 301 302 303 305 307 309 312 311 303 293 278
310 314 315 315 316 316 318 317 315 312 311 309 306 302 301 301 303 306 310 315 317 320 322 324 325 327 330 332 334 336 336 336 336 335 333 330 326 323 320 318 316 314 311 309 307 306 305 304 303 302 301 300 300 300 299 299 299 300 302 305 306 306 307 309 309 308 308 310 312 314 310 298 287 278
312 314 314 315 316 317 317 316 312 310 309 306 302 300 300 301 303 308 313 316 318 320 322 324 325 327 329 331 332 334 335 336 337 337 337 335 330 326 323 321 319 316 314 311 309 309 308 307 306 305 304 303 302 301 300 300 300 301 305 308 309 310 313 315 314 313 313 314 316 318 313 295 282 274
312 313 314 315 316 316 316 314 311 309 306 302 299 298 298 301 306 311 315 317 319 321 323 324 325 326 327 329 331 333 335 336 337 338 339 338 334 330 327 324 322 321 319 317 316 315 315 314 313 312 310 308 306 303 302 301 300 302 305 307 309 312 315 316 316 315 316 318 320 322 315 291 275 271
311 313 315 316 316 316 315 313 310 307 303 298 295 295 297 302 308 312 315 318 320 322 323 324 325 326 327 329 332 333 334 335 337 339 341 339 336 333 330 329 329 328 327 326 325 324 323 322 321 320 318 315 312 308 305 302 301 302 304 306 309 312 314 316 317 318 318 321 324 325 318 294 271 265
311 314 315 315 315 315 314 312 308 304 298 294 292 293 297 303 308 313 316 319 321 322 323 323 324 325 327 330 332 333 334 335 338 340 341 340 338 335 333 334 335 336 336 335 334 333 332 330 329 328 326 322 318 313 308 305 304 304 305 307 309 312 315 317 318 318 319 321 324 325 322 309 287 269
312 313 314 314 315 314 312 309 305 299 294 290 289 292 296 303 310 314 317 318 320 321 322 323 323 325 328 330 332 333 334 335 337 339 341 341 339 336 335 336 338 339 340 341 341 341 340 338 337 335 332 328 324 319 314 309 307 306 308 309 312 316 319 319 318 318 320 322 324 324 321 311 297 282
Height
5890 5889 5888 5887 5886 5884 5883 5882 5880 5879 5878 5877 5875 5874 5873 5872 5871 5870 5869 5868 5866 5865 5863 5862 5862 5862 5863 5863 5863 5863 5863 5863 5863 5862 5862 5861 5861 5860 5859 5858 5858 5857 5857 5857 5856 5856 5856 5856 5855 5855 5854 5854 5853 5853 5853 5853 5853 5853 5853 5854 5854 5854 5854 5855 5855 5856 5856 5856 5857 5858 5858 5859 5859 5859
5889 5887 5886 5884 5883 5883 5882 5880 5879 5878 5876 5875 5874 5873 5871 5870 5869 5867 5866 5864 5863 5862 5861 5859 5858 5858 5859 5859 5859 5858 5858 5858 5858 5858 5858 5858 5857 5856 5855 5854 5854 5853 5853 5853 5852 5852 5852 5851 5851 5851 5850 5849 5849 5848 5848 5848 5848 5848 5848 5849 5849 5849 5850 5850 5851 5851 5851 5851 5852 5852 5853 5853 5854 5854
5888 5886 5885 5883 5881 5880 5879 5878 5876 5875 5874 5873 5872 5870 5868 5867 5865 5864 5862 5860 5859 5858 5857 5856 5855 5854 5854 5854 5854 5854 5854 5853 5853 5853 5853 5853 5852 5852 5851 5850 5849 5849 5849 5848 5848 5848 5848 5847 5847 5846 5846 5845 5844 5844 5844 5843 5843 5843 5843 5843 5843 5844 5844 5845 5845 5845 5846 5846 5846 5847 5847 5848 5848 5849
5886 5885 5883 5881 5880 5878 5876 5875 5873 5871 5870 5869 5868 5867 5865 5864 5862 5860 5859 5857 5856 5855 5853 5852 5852 5851 5850 5850 5849 5849 5849 5849 5849 5848 5848 5847 5847 5846 5846 5846 5846 5845 5845 5844 5844 5844 5843 5843 5842 5841 5841 5840 5840 5839 5839 5838 5838 5838 5838 5837 5838 5838 5838 5839 5839 5839 5840 5840 5841 5841 5841 5842 5842 5843
5884 5883 5881 5879 5878 5876 5874 5872 5870 5869 5867 5866 5865 5863 5862 5861 5859 5858 5856 5854 5853 5852 5851 5849 5848 5847 5847 5846 5845 5845 5845 5845 5845 5844 5844 5843 5842 5841 5841 5841 5840 5840 5839 5839 5839 5838 5838 5837 5836 5835 5835 5834 5834 5833 5833 5833 5832 5832 5832 5832 5832 5832 5833 5833 5833 5833 5833 5834 5835 5835 5835 5835 5836 5836
5881 5880 5878 5876 5875 5873 5871 5870 5868 5866 5865 5863 5862 5861 5859 5858 5857 5855 5854 5852 5851 5849 5848 5846 5844 5843 5843 5842 5841 5841 5840 5840 5840 5840 5840 5839 5838 5837 5837 5836 5835 5834 5833 5832 5832 5831 5831 5830 5829 5828 5828 5827 5827 5827 5826 5826 5826 5826 5826 5826 5826 5826 5827 5827 5827 5827 5827 5827 5828 5828 5829 5829 5829 5830
5878 5876 5875 5873 5872 5870 5868 5867 5865 5864 5862 5861 5860 5858 5857 5856 5854 5853 5852 5851 5849 5847 5845 5843 5841 5840 5839 5838 5836 5836 5836 5835 5835 5835 5835 5834 5834 5834 5833 5832 5831 5830 5828 5827 5825 5824 5823 5822 5822 5822 5821 5821 5821 5820 5820 5820 5819 5819 5819 5819 5819 5819 5819 5820 5820 5820 5820 5820 5820 5821 5821 5822 5822 5823
5875 5873 5871 5870 5868 5867 5865 5863 5862 5861 5859 5858 5857 5856 5854 5853 5852 5851 5849 5848 5847 5845 5842 5840 5838 5837 5835 5834 5832 5831 5831 5831 5831 5830 5830 5829 5829 5828 5827 5826 5825 5824 5823 5821 5819 5817 5816 5815 5814 5814 5814 5814 5814 5814 5813 5813 5813 5813 5812 5812 5812 5812 5812 5812 5812 5813 5813 5813 5813 5814 5814 5815 5815 5815
5873 5870 5868 5866 5864 5863 5861 5860 5858 5857 5856 5855 5854 5852 5851 5850 5849 5848 5846 5845 5844 5842 5840 5838 5836 5834 5832 5831 5829 5827 5826 5826 5826 5825 5824 5823 5822 5821 5820 5819 5818 5817 5816 5815 5813 5812 5811 5809 5808 5807 5806 5806 5806 5806 5806 5806 5805 5805 5805 5805 5805 5805 5805 5805 5805 5805 5805 5805 5806 5807 5807 5807 5808 5808
5870 5868 5865 5863 5861 5859 5858 5857 5855 5854 5852 5851 5850 5849 5848 5847 5846 5844 5843 5842 5840 5839 5837 5835 5833 5831 5830 5828 5826 5824 5822 5822 5821 5820 5818 5817 5815 5814 5813 5812 5811 5809 5808 5808 5807 5806 5805 5804 5803 5802 5800 5799 5798 5798 5798 5798 5798 5797 5797 5797 5797 5797 5796 5797 5797 5797 5798 5798 5798 5799 5800 5800 5801 5801
5867 5865 5863 5860 5858 5857 5855 5853 5852 5850 5849 5848 5847 5846 5845 5844 5843 5841 5840 5838 5836 5835 5833 5831 5829 5827 5825 5823 5822 5820 5818 5817 5816 5814 5813 5812 5810 5808 5807 5806 5804 5802 5801 5800 5799 5799 5798 5797 5796 5795 5793 5792 5791 5790 5790 5790 5790 5789 5789 5788 5788 5788 5788 5788 5789 5789 5790 5790 5790 5791 5792 5792 5793 5794
5864 5862 5860 5858 5856 5854 5852 5850 5849 5848 5846 5845 5844 5843 5842 5841 5839 5838 5836 5835 5833 5831 5829 5827 5825 5823 5821 5818 5816 5815 5813 5812 5810 5808 5807 5807 5805 5802 5801 5800 5798 5796 5794 5792 5791 5790 5790 5789 5788 5787 5785 5784 5783 5783 5782 5782 5781 5780 5780 5779 5779 5779 5779 5780 5780 5780 5781 5781 5782 5783 5783 5784 5785 5785
5861 5859 5857 5855 5854 5851 5849 5847 5846 5845 5844 5843 5841 5840 5839 5838 5836 5835 5833 5831 5829 5827 5825 5823 5821 5819 5817 5814 5812 5810 5808 5806 5805 5803 5802 5800 5799 5797 5796 5794 5792 5789 5787 5785 5784 5783 5781 5780 5779 5778 5777 5776 5775 5775 5775 5774 5773 5772 5772 5771 5771 5771 5771 5771 5771 5771 5772 5772 5773 5774 5775 5775 5776 5777
5858 5856 5854 5853 5851 5848 5846 5844 5843 5843 5841 5840 5839 5837 5836 5834 5832 5831 5829 5827 5825 5823 5821 5819 5817 5814 5812 5810 5807 5805 5803 5801 5800 5798 5796 5794 5792 5790 5789 5788 5785 5782 5780 5778 5778 5776 5774 5772 5771 5770 5769 5768 5767 5766 5766 5764 5764 5763 5763 5763 5763 5763 5763 5762 5762 5762 5763 5763 5764 5765 5765 5766 5767 5768
5854 5852 5851 5849 5848 5845 5843 5842 5841 5840 5838 5837 5835 5833 5831 5830 5828 5826 5824 5822 5820 5818 5816 5814 5811 5809 5807 5804 5802 5799 5797 5795 5793 5791 5789 5787 5785 5783 5781 5781 5779 5776 5772 5771 5770 5770 5767 5765 5764 5762 5761 5760 5759 5758 5757 5755 5755 5754 5754 5754 5754 5754 5754 5754 5754 5754 5754 5755 5755 5756 5756 5757 5758 5759
5851 5849 5847 5846 5844 5842 5840 5838 5837 5836 5834 5832 5830 5828 5827 5825 5823 5821 5819 5817 5815 5813 5811 5808 5805 5803 5800 5799 5796 5793 5791 5789 5786 5784 5782 5779 5777 5776 5774 5772 5771 5769 5766 5763 5762 5762 5760 5757 5756 5755 5753 5752 5751 5750 5749 5747 5746 5746 5746 5746 5746 5746 5746 5746 5746 5746 5746 5746 5746 5747 5747 5748 5749 5750
5847 5845 5843 5842 5840 5838 5836 5834 5833 5831 5830 5828 5826 5824 5822 5820 5818 5816 5814 5812 5810 5808 5805 5802 5800 5797 5794 5792 5790 5786 5783 5781 5779 5776 5774 5772 5770 5768 5766 5765 5764 5761 5758 5755 5755 5755 5753 5750 5749 5748 5745 5744 5743 5742 5740 5739 5738 5738 5738 5738 5738 5738 5738 5738 5738 5738 5738 5738 5738 5738 5739 5739 5740 5740
5843 5840 5838 5837 5836 5834 5831 5830 5828 5827 5825 5823 5821 5819 5817 5815 5813 5811 5809 5807 5804 5802 5799 5796 5794 5791 5788 5785 5782 5779 5776 5773 5771 5769 5767 5765 5763 5761 5759 5758 5756 5753 5750 5748 5747 5748 5745 5743 5742 5741 5738 5736 5735 5734 5733 5732 5731 5730 5730 5729 5729 5729 5729 5729 5729 5729 5729 5728 5729 5729 5729 5730 5730 5731
5838 5835 5834 5832 5831 5829 5827 5825 5824 5822 5820 5818 5816 5814 5812 5810 5808 5806 5803 5801 5798 5796 5793 5790 5787 5784 5781 5778 5775 5772 5769 5767 5764 5762 5760 5758 5756 5755 5753 5751 5749 5745 5742 5740 5740 5740 5738 5736 5734 5733 5731 5729 5729 5728 5726 5724 5723 5723 5722 5722 5721 5721 5721 5720 5720 5720 5720 5719 5719 5719 5719 5720 5720 5721
5833 5831 5830 5828 5827 5825 5823 5821 5819 5817 5815 5813 5811 5809 5807 5805 5803 5800 5798 5795 5792 5789 5786 5783 5781 5777 5774 5771 5769 5766 5763 5761 5758 5756 5755 5753 5750 5748 5747 5744 5742 5738 5735 5733 5732 5732 5731 5729 5728 5727 5725 5724 5723 5721 5719 5717 5716 5716 5715 5715 5715 5714 5713 5712 5711 5711 5711 5710 5710 5710 5710 5711 5711 5712
5830 5828 5826 5824 5823 5820 5819 5817 5815 5812 5810 5808 5806 5804 5802 5800 5797 5794 5791 5789 5786 5783 5780 5777 5774 5771 5768 5765 5763 5760 5758 5755 5753 5751 5749 5747 5744 5742 5740 5738 5735 5732 5728 5726 5725 5725 5724 5723 5722 5721 5719 5718 5717 5714 5712 5711 5710 5709 5709 5708 5708 5707 5706 5704 5704 5703 5703 5702 5702 5701 5702 5702 5702 5703
5827 5824 5822 5820 5818 5816 5815 5812 5809 5807 5805 5802 5800 5798 5796 5794 5791 5787 5784 5781 5778 5776 5773 5770 5767 5764 5761 5759 5757 5754 5752 5749 5747 5745 5743 5740 5737 5735 5733 5731 5729 5727 5723 5720 5719 5719 5718 5717 5716 5715 5714 5712 5710 5708 5707 5706 5704 5703 5703 5702 5701 5699 5698 5697 5696 5696 5695 5694 5693 5693 5693 5693 5693 5694
5823 5821 5818 5816 5814 5812 5810 5807 5804 5802 5799 5797 5795 5793 5790 5788 5784 5781 5778 5775 5772 5769 5766 5763 5760 5757 5755 5753 5751 5748 5745 5743 5740 5738 5736 5734 5731 5729 5727 5725 5723 5721 5718 5714 5714 5714 5713 5711 5709 5708 5708 5707 5705 5702 5701 5700 5698 5697 5696 5695 5694 5693 5691 5691 5690 5689 5688 5687 5686 5685 5685 5684 5684 5685
5819 5816 5814 5812 5810 5808 5805 5802 5799 5797 5794 5791 5789 5787 5784 5782 5778 5775 5772 5769 5766 5764 5761 5757 5755 5752 5749 5747 5744 5742 5739 5736 5734 5731 5729 5727 5725 5723 5721 5719 5717 5715 5712 5709 5708 5708 5707 5705 5703 5701 5700 5701 5700 5698 5696 5695 5693 5691 5690 5689 5688 5686 5685 5684 5683 5682 5681 5679 5678 5678 5677 5677 5676 5676
5814 5812 5810 5807 5805 5802 5800 5797 5794 5791 5788 5786 5783 5781 5779 5776 5773 5770 5767 5764 5762 5759 5756 5753 5750 5747 5744 5741 5738 5735 5732 5730 5727 5725 5723 5721 5719 5716 5715 5713 5711 5709 5707 5704 5702 5702 5701 5699 5697 5695 5694 5694 5694 5693 5692 5691 5688 5686 5685 5683 5682 5680 5679 5678 5677 5675 5674 5673 5672 5671 5670 5669 5669 5668
5810 5807 5805 5803 5800 5797 5794 5791 5789 5786 5783 5781 5778 5776 5774 5771 5768 5765 5761 5759 5756 5754 5751 5748 5745 5742 5739 5736 5732 5730 5727 5724 5722 5719 5717 5714 5712 5710 5708 5707 5705 5704 5701 5698 5696 5696 5695 5693 5691 5690 5690 5689 5689 5688 5687 5686 5684 5681 5679 5677 5676 5675 5673 5672 5671 5669 5667 5666 5665 5664 5663 5662 5661 5660
5805 5802 5800 5798 5795 5793 5790 5787 5784 5781 5778 5776 5774 5771 5769 5766 5762 5760 5757 5754 5751 5748 5745 5742 5739 5737 5734 5731 5728 5725 5722 5719 5716 5714 5711 5708 5706 5704 5701 5700 5699 5697 5696 5693 5691 5690 5689 5688 5687 5685 5685 5684 5683 5682 5681 5680 5678 5676 5673 5671 5670 5669 5667 5665 5664 5663 5661 5660 5659 5658 5657 5656 5654 5653
5799 5797 5794 5792 5790 5788 5785 5782 5779 5777 5774 5771 5769 5766 5763 5761 5758 5755 5752 5749 5746 5743 5740 5737 5735 5732 5729 5726 5723 5720 5717 5714 5711 5708 5705 5702 5700 5697 5695 5693 5692 5691 5690 5688 5686 5685 5684 5683 5682 5680 5679 5678 5677 5676 5675 5674 5673 5671 5668 5666 5665 5663 5661 5659 5658 5657 5656 5654 5652 5651 5650 5648 5647 5645
5794 5791 5789 5787 5785 5782 5780 5777 5774 5772 5769 5766 5764 5761 5759 5756 5753 5750 5746 5744 5741 5738 5735 5732 5730 5727 5724 5721 5718 5715 5712 5709 5706 5703 5700 5697 5694 5692 5690 5688 5687 5685 5684 5683 5681 5680 5679 5678 5677 5675 5674 5672 5671 5670 5669 5668 5667 5666 5663 5662 5661 5659 5657 5654 5651 5650 5649 5647 5645 5644 5642 5640 5639 5637
5788 5786 5784 5782 5780 5777 5775 5772 5769 5767 5764 5762 5759 5757 5754 5751 5748 5745 5742 5739 5736 5733 5730 5728 5725 5722 5720 5717 5714 5711 5707 5704 5701 5698 5695 5692 5690 5688 5686 5684 5682 5680 5679 5678 5677 5675 5674 5673 5672 5670 5669 5667 5666 5664 5663 5662 5661 5660 5658 5656 5655 5653 5651 5648 5646 5644 5642 5641 5640 5638 5636 5633 5631 5627
5784 5781 5779 5777 5774 5772 5769 5767 5764 5762 5759 5757 5754 5752 5749 5746 5743 5741 5738 5735 5732 5729 5727 5724 5721 5718 5715 5712 5709 5706 5702 5699 5696 5693 5690 5688 5685 5684 5682 5680 5678 5676 5675 5673 5672 5671 5670 5669 5667 5666 5664 5663 5662 5660 5658 5656 5655 5654 5652 5650 5649 5647 5644 5642 5640 5638 5635 5634 5634 5633 5630 5627 5623 5618
5779 5777 5775 5772 5770 5767 5764 5762 5759 5757 5755 5752 5750 5747 5744 5742 5739 5737 5734 5731 5728 5725 5723 5720 5717 5714 5711 5708 5705 5701 5698 5695 5692 5689 5687 5684 5682 5680 5678 5676 5674 5672 5671 5669 5667 5666 5665 5664 5663 5661 5660 5658 5657 5655 5654 5652 5650 5648 5647 5645 5643 5641 5638 5635 5633 5631 5628 5626 5627 5626 5623 5619 5614 5609
5774 5772 5770 5768 5765 5762 5759 5757 5755 5752 5750 5747 5745 5742 5740 5738 5735 5733 5730 5727 5724 5722 5720 5717 5714 5711 5707 5704 5701 5697 5694 5691 5688 5686 5683 5681 5679 5677 5675 5673 5671 5670 5668 5666 5664 5662 5661 5659 5658 5656 5655 5653 5652 5650 5648 5648 5646 5644 5642 5640 5638 5636 5633 5629 5626 5623 5620 5618 5618 5618 5616 5612 5606 5600
5769 5767 5765 5763 5760 5757 5754 5752 5750 5748 5745 5743 5740 5738 5736 5734 5732 5729 5726 5724 5722 5720 5717 5714 5711 5708 5705 5701 5698 5695 5692 5689 5686 5683 5680 5678 5676 5674 5672 5670 5668 5666 5665 5663 5661 5659 5658 5655 5653 5652 5650 5649 5647 5644 5642 5641 5641 5640 5637 5635 5632 5630 5628 5625 5621 5617 5614 5611 5609 5608 5608 5605 5599 5592
5764 5762 5760 5757 5755 5752 5749 5747 5746 5744 5741 5739 5736 5734 5732 5730 5728 5726 5723 5721 5719 5717 5715 5711 5708 5705 5702 5699 5696 5693 5689 5686 5683 5680 5677 5676 5673 5671 5669 5667 5665 5663 5661 5660 5658 5656 5655 5653 5651 5649 5647 5645 5644 5641 5636 5633 5633 5633 5632 5630 5627 5625 5623 5620 5617 5613 5610 5606 5603 5600 5598 5597 5593 5587
5759 5757 5754 5752 5749 5747 5745 5743 5742 5739 5737 5734 5732 5730 5728 5726 5724 5723 5721 5719 5717 5715 5712 5709 5706 5703 5701 5697 5694 5690 5686 5683 5680 5677 5674 5672 5670 5668 5665 5663 5662 5660 5658 5656 5654 5653 5651 5649 5647 5646 5644 5643 5641 5639 5634 5629 5626 5626 5627 5626 5623 5620 5617 5615 5612 5609 5606 5602 5599 5594 5590 5589 5587 5583
5753 5751 5749 5746 5744 5742 5741 5740 5737 5735 5732 5730 5728 5726 5724 5723 5721 5720 5718 5717 5715 5712 5709 5707 5704 5701 5698 5695 5691 5687 5684 5680 5677 5674 5672 5669 5667 5665 5662 5660 5658 5656 5654 5652 5650 5649 5647 5645 5643 5641 5640 5638 5637 5635 5632 5628 5623 5620 5620 5620 5619 5615 5612 5610 5608 5605 5601 5598 5594 5590 5585 5582 5581 5578
5747 5745 5743 5740 5739 5738 5737 5735 5733 5730 5728 5726 5725 5723 5722 5720 5719 5718 5716 5714 5712 5709 5707 5704 5701 5698 5695 5692 5688 5685 5681 5678 5675 5673 5670 5667 5664 5662 5660 5658 5655 5653 5651 5648 5646 5644 5642 5640 5638 5636 5634 5633 5631 5629 5628 5625 5621 5617 5614 5614 5613 5611 5608 5606 5603 5601 5598 5594 5590 5586 5580 5576 5575 5575
5742 5739 5737 5736 5735 5734 5733 5731 5729 5726 5725 5723 5722 5721 5720 5718 5717 5715 5714 5712 5709 5706 5704 5701 5698 5695 5692 5689 5686 5683 5680 5677 5674 5671 5668 5665 5662 5659 5657 5655 5652 5650 5648 5645 5642 5640 5638 5636 5634 5631 5629 5627 5625 5623 5621 5620 5617 5613 5610 5608 5607 5605 5603 5601 5598 5596 5593 5590 5587 5583 5578 5573 5570 5570
5737 5734 5733 5732 5731 5730 5729 5727 5725 5723 5721 5720 5719 5718 5717 5715 5714 5713 5711 5709 5706 5704 5701 5698 5695 5692 5690 5687 5684 5681 5678 5675 5672 5669 5666 5662 5659 5656 5654 5651 5649 5647 5645 5642 5639 5636 5634 5631 5629 5626 5624 5622 5620 5618 5616 5614 5612 5609 5606 5603 5601 5598 5596 5594 5592 5590 5587 5585 5582 5579 5575 5570 5567 5566
5732 5730 5729 5728 5727 5726 5725 5723 5721 5719 5717 5716 5715 5714 5713 5712 5711 5710 5708 5706 5703 5701 5698 5695 5693 5690 5687 5685 5682 5679 5676 5673 5670 5667 5663 5660 5656 5653 5651 5648 5646 5644 5641 5638 5635 5632 5630 5627 5625 5622 5619 5617 5615 5613 5611 5609 5607 5605 5603 5600 5597 5593 5590 5587 5585 5582 5580 5578 5576 5573 5570 5566 5564 5563
5727 5726 5725 5724 5723 5722 5720 5719 5717 5715 5714 5713 5712 5711 5710 5709 5708 5706 5704 5702 5700 5698 5695 5693 5690 5688 5685 5683 5680 5677 5674 5671 5668 5664 5661 5657 5654 5651 5648 5646 5643 5641 5638 5635 5632 5629 5626 5624 5621 5618 5615 5613 5611 5609 5607 5605 5603 5602 5600 5598 5595 5592 5588 5584 5580 5577 5574 5571 5569 5567 5564 5562 5561 5559
5723 5722 5721 5720 5718 5717 5716 5715 5713 5712 5711 5710 5709 5708 5707 5706 5705 5703 5701 5699 5697 5695 5693 5690 5688 5686 5683 5681 5678 5675 5672 5669 5666 5662 5659 5655 5652 5649 5646 5644 5641 5639 5636 5632 5629 5627 5624 5621 5618 5615 5612 5609 5607 5605 5603 5601 5600 5598 5597 5596 5594 5591 5588 5583 5579 5574 5570 5567 5564 5562 5560 5558 5558 5557
5719 5718 5716 5715 5714 5713 5712 5711 5709 5708 5707 5707 5706 5705 5704 5703 5702 5700 5698 5696 5694 5692 5690 5688 5685 5683 5681 5678 5676 5673 5670 5667 5664 5661 5657 5654 5651 5648 5645 5643 5640 5637 5634 5631 5628 5625 5621 5618 5615 5612 5610 5607 5604 5602 5601 5599 5597 5595 5594 5593 5591 5589 5587 5583 5579 5575 5570 5565 5562 5560 5557 5555 5554 5554
5714 5713 5712 5711 5710 5709 5708 5707 5705 5704 5704 5703 5702 5702 5701 5700 5699 5697 5695 5693 5691 5690 5688 5685 5683 5681 5678 5676 5673 5671 5668 5665 5662 5659 5656 5653 5650 5647 5644 5641 5639 5636 5633 5630 5627 5624 5620 5617 5614 5611 5608 5605 5602 5600 5598 5597 5595 5593 5592 5590 5589 5587 5584 5581 5579 5575 5570 5565 5561 5557 5555 5553 5551 5550